Content
SEND FEEDBACK

Daily
Averages
Monthly
Summary
United States of America

ARMSTRONG, TEXAS


Home > North America > United States > Texas
Elevation: 30 feet     Latitude: 26 56N     Longitude: 097 47W

WEATHER
 
SELECT A DAY
Number of Records: 279,131;   Date Range: 1/24/03 - 9/30/14
 
SHARE

PRINT THIS DATA

[ ← Previous Day ]
WEATHER ALMANAC - JANUARY 23, 2013
[ Next Day → ]
[ °C ]   °F
Weather ElementAverageHighLow
Temperature67.9 °F81.5 °F (4:35 pm)55 °F (6:35 am)
Dewpoint59.2 °F63.5 °F (10:55 am)53.6 °F (6:35 am)
Humidity76.2 %96 % (5:55 am)47 % (5:15 pm)
Barometer30.25 in30.32 in (10:15 am)30.19 in (4:15 pm)
Wind Speed4.7 mph11.5 mph (7:15 pm)
Wind Gust16.1 mph (12:35 pm)
Weather ElementAverage
Visibility9.8 mi
Wind DirectionESE (101.3 °)

Weather ElementTotal
Precipitation---
Cooling Degree Days3.3 (Base 65)
Growing Degree Days18.3 (Base 50)
Averaged from 68 records on January 23, 2013
WEATHER CONDITIONS BREAKOUT
WIND DIRECTION BREAKOUT
WEATHER BY HOUR - JANUARY 23, 2013
[ °C ]   °F
Local TimeTemperatureDewpointHumidityBarometerVisibilityWind DirectionWind SpeedGust SpeedPrecipitationEventsConditions
12:35 AM57.6 °F55.4 °F92 %30.26 in10.0 miNorth (350°)3.5 mphScattered Clouds
12:55 AM57.2 °F54.9 °F92 %30.26 in10.0 miCalmClear
1:15 AM56.7 °F54.7 °F93 %30.26 in10.0 miNorth (360°)4.6 mphClear
1:35 AM55.9 °F54.1 °F94 %30.26 in10.0 miCalmMostly Cloudy
1:55 AM57.2 °F55.2 °F93 %30.26 in10.0 miNE (40°)3.5 mphOvercast
2:15 AM57.4 °F55.4 °F93 %30.26 in10.0 miCalmOvercast
2:35 AM57.7 °F55.4 °F92 %30.26 in10.0 miCalmOvercast
3:15 AM58.5 °F55.8 °F91 %30.24 in10.0 miCalmOvercast
3:35 AM58.6 °F55.8 °F90 %30.24 in10.0 miCalmOvercast
3:55 AM59.0 °F55.9 °F90 %30.24 in10.0 miCalmOvercast
4:15 AM57.7 °F55.4 °F92 %30.24 in10.0 miCalmScattered Clouds
4:35 AM57.4 °F55.0 °F92 %30.24 in10.0 miCalmClear
4:55 AM57.4 °F55.2 °F92 %30.24 in10.0 miCalmClear
5:15 AM56.3 °F54.3 °F93 %30.24 in10.0 miCalmClear
5:35 AM55.6 °F54.0 °F94 %30.24 in10.0 miNorth (10°)3.5 mphClear
5:55 AM55.8 °F54.5 °F96 %30.25 in10.0 miCalmClear
6:15 AM55.6 °F54.1 °F95 %30.26 in7.0 miCalmScattered Clouds
6:35 AM55.0 °F53.6 °F95 %30.26 in10.0 miCalmMostly Cloudy
7:15 AM56.3 °F54.5 °F94 %30.28 in10.0 miCalmOvercast
7:35 AM56.3 °F54.5 °F94 %30.28 in10.0 miCalmScattered Clouds
7:55 AM55.8 °F54.3 °F95 %30.28 in7.0 miCalmMostly Cloudy
8:15 AM56.1 °F54.5 °F94 %30.28 in7.0 miCalmMostly Cloudy
8:35 AM55.8 °F54.5 °F96 %30.28 in7.0 miCalmScattered Clouds
8:55 AM57.0 °F55.4 °F94 %30.29 in7.0 miCalmMostly Cloudy
9:15 AM59.5 °F56.8 °F91 %30.29 in10.0 miCalmMostly Cloudy
9:35 AM62.8 °F58.3 °F85 %30.30 in10.0 miCalmScattered Clouds
9:55 AM65.5 °F59.2 °F80 %30.31 in10.0 miCalmClear
10:15 AM67.3 °F60.3 °F78 %30.32 in10.0 miSE (130°)3.5 mphMostly Cloudy
10:35 AM70.0 °F61.9 °F75 %30.32 in10.0 miESE (110°)4.6 mphScattered Clouds
10:55 AM73.4 °F63.5 °F71 %30.32 in10.0 miSSE (150°)6.9 mphScattered Clouds
11:15 AM73.6 °F63.3 °F70 %30.32 in10.0 miSE (130°)10.4 mphMostly Cloudy
11:35 AM76.1 °F62.6 °F63 %30.32 in10.0 miSSE (160°)8.1 mphMostly Cloudy
11:55 AM74.7 °F62.1 °F65 %30.32 in10.0 miSouth (170°)6.9 mphMostly Cloudy
12:15 PM75.6 °F62.1 °F63 %30.30 in10.0 miSSE (150°)5.8 mphOvercast
12:35 PM77.5 °F61.0 °F57 %30.29 in10.0 miSouth (170°)10.4 mph16.1 mphMostly Cloudy
12:55 PM77.5 °F61.7 °F58 %30.28 in10.0 miSSE (160°)6.9 mphMostly Cloudy
1:15 PM78.1 °F60.6 °F55 %30.27 in10.0 miSSE (150°)6.9 mphOvercast
1:35 PM77.7 °F60.8 °F56 %30.26 in10.0 miSouth (180°)6.9 mphOvercast
1:55 PM78.3 °F61.2 °F56 %30.25 in10.0 miSSE (160°)8.1 mphOvercast
2:15 PM78.6 °F60.8 °F54 %30.24 in10.0 miSouth (170°)6.9 mphOvercast
2:35 PM79.0 °F61.0 °F54 %30.23 in10.0 miSouth (180°)5.8 mphOvercast
2:55 PM79.3 °F60.8 °F53 %30.23 in10.0 miSSE (160°)10.4 mphMostly Cloudy
3:15 PM81.0 °F61.0 °F50 %30.22 in10.0 miSE (140°)6.9 mphMostly Cloudy
3:35 PM80.2 °F60.6 °F51 %30.21 in10.0 miSSE (150°)5.8 mphScattered Clouds
3:55 PM80.6 °F60.8 °F51 %30.20 in10.0 miSouth (180°)10.4 mphScattered Clouds
4:15 PM81.0 °F60.6 °F50 %30.19 in10.0 miSSE (160°)6.9 mphScattered Clouds
4:35 PM81.5 °F60.1 °F48 %30.19 in10.0 miSouth (190°)9.2 mphScattered Clouds
4:55 PM80.1 °F60.8 °F52 %30.19 in10.0 miSSE (160°)5.8 mphScattered Clouds
5:15 PM81.3 °F59.2 °F47 %30.19 in10.0 miSouth (170°)10.4 mphScattered Clouds
5:35 PM80.1 °F60.1 °F50 %30.19 in10.0 miSSE (160°)9.2 mphScattered Clouds
5:55 PM79.2 °F60.4 °F53 %30.20 in10.0 miSouth (170°)8.1 mphScattered Clouds
6:15 PM77.5 °F60.8 °F56 %30.21 in10.0 miSouth (170°)3.5 mphScattered Clouds
6:35 PM76.6 °F62.6 °F62 %30.22 in10.0 miESE (120°)5.8 mphMostly Cloudy
6:55 PM75.9 °F63.1 °F64 %30.22 in10.0 miESE (110°)6.9 mphOvercast
7:15 PM74.3 °F63.5 °F69 %30.22 in10.0 miESE (120°)11.5 mphMostly Cloudy
7:35 PM73.4 °F63.5 °F71 %30.22 in10.0 miESE (120°)8.1 mphScattered Clouds
7:55 PM72.1 °F63.5 °F74 %30.23 in10.0 miESE (120°)8.1 mphScattered Clouds
8:15 PM71.1 °F63.5 °F77 %30.24 in10.0 miESE (120°)6.9 mphClear
8:35 PM70.7 °F63.5 °F78 %30.24 in10.0 miESE (110°)6.9 mphScattered Clouds
8:55 PM70.0 °F63.5 °F80 %30.24 in10.0 miSE (130°)5.8 mphScattered Clouds
9:15 PM69.8 °F63.5 °F80 %30.24 in10.0 miSE (140°)8.1 mphClear
9:35 PM68.9 °F63.1 °F82 %30.25 in10.0 miSE (140°)8.1 mphClear
9:55 PM68.9 °F63.0 °F81 %30.25 in10.0 miSSE (150°)10.4 mphClear
10:35 PM67.8 °F62.6 °F83 %30.24 in10.0 miSSE (150°)8.1 mphClear
10:55 PM67.1 °F62.6 °F85 %30.24 in10.0 miSSE (150°)9.2 mphClear
11:15 PM66.6 °F62.6 °F87 %30.25 in10.0 miSSE (160°)5.8 mphClear
11:35 PM65.5 °F61.9 °F88 %30.25 in10.0 miSSE (160°)5.8 mphClear
11:55 PM64.8 °F61.7 °F90 %30.25 in10.0 miSSE (150°)4.6 mphClear
Hourly data recorded from KBKS, located miles away from Armstrong, Texas







STORIES FROM OUR PARTNERS